Weather in Balansu

Russia / Chechen Republic     43°07′16″N   46°23′18″E
temp.,
°C
wind,
m/s
gust,
m/s
humid.,
%
clouds,
%
prec.,
mm/h
press.,
hPa
HPBL,
m
16 april, fri
fri1600:00+8s226493 0.0 101816
03:00+7s216728 0.0 101911
06:00+7s11695 0.0 102014
09:00+12nne225220 0.0 10191103
12:00+14nne434961 0.2 10181420
15:00+14ne335373 0.6 10181259
18:00+11e22705 0.8 101881
21:00+9s32743 1.1 101926
17 april, sat
sat1700:00+9s32690 0.0 101925
03:00+9s32685 0.0 101827
06:00+9s336418 0.0 101841
09:00+16n1239100 0.0 1016731
12:00+17nnw4347100 0.0 10171204
15:00+15nw4458100 0.0 10181127
18:00+12w3571100 0.1 1020701
21:00+9wnw3587100 0.1 1022711
18 april, sun
sun1800:00+8wnw2392100 0.1 1021411
03:00+8nnw119389 0.2 1021131
06:00+8nne1198100 0.0 1021149
09:00+11ne2278100 0.1 1019547
12:00+16nne335895 0.0 1016919
15:00+14n326678 0.9 1015750
18:00+12nne118089 1.2 101559
21:00+10wnw239493 3.0 1018116
19 april, mon
mon1900:00+11ssw3489100 1.2 101890
03:00+10sw2181100 1.3 101812
06:00+11s1176100 0.0 101812
09:00+15ne226246 0.0 1017489
12:00+18nne435398 0.0 10161054
15:00+18ne3351100 0.0 10141094
18:00+15e2267100 0.1 101581
21:00+13sse2272100 0.1 101529
20 april, tue
tue2000:00+13s337291 0.0 101342
03:00+12s4365100 0.0 101244
06:00+15s3356100 0.0 101048
09:00+20se2341100 0.0 1008219
12:00+23sse353493 0.0 1005558
15:00+27e152498 0.0 10031947
18:00+20ssw2150100 0.0 100414
21:00+15w4871100 0.3 1010477